Location: Castillon
(43.0896°N, 0.2156°E)
Time: 10:49:05
(UTC+00:00)

Cosmos 1544 Rocket - Pass Details

Date: 28 October 2021
Orbit: 603 x 631 km, 82.5° (Epoch: 08 December)

Event Time Altitude Azimuth Distance (km) Brightness Sun altitude
Rises 04:16:42 0° 357° (N) 2,902 7.0 -24.6°
Reaches altitude 10° 04:19:01 10° 3° (N) 1,987 6.2 -24.2°
Maximum altitude 04:23:16 47° 78° (ENE) 817 4.5 -23.5°
Drops below altitude 10° 04:27:27 10° 153° (SSE) 1,956 6.4 -22.7°
Sets 04:29:43 0° 159° (SSE) 2,851 7.2 -22.3°
